TimeCDT,TemperatureF,Dew PointF,Humidity,Sea Level PressureIn,VisibilityMPH,Wind Direction,Wind SpeedMPH,Gust SpeedMPH,PrecipitationIn,Events,Conditions,WindDirDegrees,DateUTC
12:52 AM,69.1,63.0,81,29.85,10.0,Calm,Calm,-,N/A,,Partly Cloudy,0,2013-06-12 05:52:00
1:52 AM,71.1,63.0,75,29.88,10.0,Calm,Calm,-,N/A,,Overcast,0,2013-06-12 06:52:00
2:52 AM,71.1,63.0,75,29.88,10.0,Calm,Calm,-,N/A,,Mostly Cloudy,0,2013-06-12 07:52:00
3:52 AM,69.1,63.0,81,29.86,10.0,Calm,Calm,-,N/A,,Clear,0,2013-06-12 08:52:00
4:52 AM,68.0,63.0,84,29.83,10.0,NNE,3.5,-,N/A,,Clear,30,2013-06-12 09:52:00
5:52 AM,68.0,60.1,76,29.88,8.0,NNE,8.1,-,N/A,,Clear,30,2013-06-12 10:52:00
6:52 AM,66.9,59.0,76,29.88,7.0,Calm,Calm,-,N/A,,Clear,0,2013-06-12 11:52:00
7:52 AM,69.1,60.1,73,29.92,8.0,South,4.6,-,N/A,,Overcast,190,2013-06-12 12:52:00
8:52 AM,72.0,62.1,71,29.88,9.0,Calm,Calm,-,N/A,,Clear,0,2013-06-12 13:52:00
9:52 AM,73.9,63.0,68,29.86,9.0,SSW,6.9,-,N/A,,Clear,200,2013-06-12 14:52:00
10:52 AM,75.9,63.0,64,29.74,10.0,SSE,15.0,-,N/A,,Clear,160,2013-06-12 15:52:00
11:09 AM,77.0,62.6,61,29.76,10.0,SSE,10.4,20.7,N/A,,Clear,160,2013-06-12 16:09:00
11:52 AM,81.0,64.9,58,29.73,10.0,SE,6.9,-,N/A,,Clear,130,2013-06-12 16:52:00
12:52 PM,72.0,62.1,71,29.78,9.0,NNE,9.2,-,N/A,,Clear,20,2013-06-12 17:52:00
1:52 PM,72.0,61.0,68,29.82,9.0,North,8.1,-,N/A,,Clear,10,2013-06-12 18:52:00
2:52 PM,73.0,61.0,66,29.79,9.0,ENE,9.2,-,N/A,,Clear,60,2013-06-12 19:52:00
3:52 PM,73.9,62.1,66,29.76,7.0,ENE,9.2,-,N/A,,Clear,60,2013-06-12 20:52:00
4:52 PM,69.1,61.0,75,29.72,7.0,ENE,9.2,-,N/A,,Partly Cloudy,60,2013-06-12 21:52:00
5:17 PM,69.8,60.8,73,29.73,6.0,East,9.2,-,N/A,Thunderstorm,Unknown,80,2013-06-12 22:17:00
5:52 PM,68.0,63.0,84,29.73,3.0,South,8.1,-,0.01,Rain-Thunderstorm,Thunderstorms and Rain,170,2013-06-12 22:52:00
6:06 PM,68.0,64.4,88,29.71,1.8,South,8.1,-,0.07,Rain-Thunderstorm,Thunderstorms and Rain,170,2013-06-12 23:06:00
6:13 PM,68.0,64.4,88,29.69,0.8,Variable,4.6,-,0.17,Rain-Thunderstorm,Heavy Thunderstorms and Rain,0,2013-06-12 23:13:00
6:20 PM,68.0,64.4,88,29.69,1.0,South,20.7,29.9,0.22,Rain-Thunderstorm,Thunderstorms and Rain,170,2013-06-12 23:20:00
6:27 PM,69.8,66.2,88,29.68,2.0,South,11.5,29.9,0.22,Rain-Thunderstorm,Light Thunderstorms and Rain,170,2013-06-12 23:27:00
6:36 PM,69.8,66.2,88,29.65,6.0,East,4.6,-,0.22,Thunderstorm,Overcast,80,2013-06-12 23:36:00
6:48 PM,69.8,66.2,88,29.65,3.0,NE,5.8,-,0.24,Rain,Light Rain,40,2013-06-12 23:48:00
6:52 PM,70.0,66.9,90,29.65,2.0,NNE,6.9,-,0.28,Rain,Rain,20,2013-06-12 23:52:00
7:10 PM,69.8,66.2,88,29.65,4.0,SSE,5.8,-,0.01,,Overcast,160,2013-06-13 00:10:00
7:31 PM,69.8,68.0,94,29.63,2.5,West,9.2,23.0,0.02,Thunderstorm,Mostly Cloudy,280,2013-06-13 00:31:00
7:40 PM,68.0,64.4,88,29.63,1.8,North,3.5,17.3,0.02,Thunderstorm,Mostly Cloudy,350,2013-06-13 00:40:00
7:48 PM,68.0,66.2,94,29.63,2.0,South,4.6,-,0.02,,Mostly Cloudy,170,2013-06-13 00:48:00
7:49 PM,68.0,66.0,93,29.62,2.0,South,5.8,-,0.02,,Mostly Cloudy,180,2013-06-13 00:49:00
7:57 PM,69.8,66.2,88,29.70,2.5,NW,28.8,42.6,N/A,Thunderstorm,Mostly Cloudy,320,2013-06-13 00:57:00
8:06 PM,66.2,64.4,94,29.66,1.5,NNE,9.2,42.6,0.08,Rain-Thunderstorm,Rain,20,2013-06-13 01:06:00
8:11 PM,66.2,62.6,88,29.68,3.0,North,10.4,-,0.08,Rain-Thunderstorm,Light Rain,10,2013-06-13 01:11:00
8:30 PM,66.2,62.6,88,29.68,5.0,North,11.5,19.6,0.08,Rain-Thunderstorm,Light Rain,10,2013-06-13 01:30:00
8:36 PM,66.2,62.6,88,29.66,5.0,NE,13.8,-,0.09,Rain,Light Rain,40,2013-06-13 01:36:00
8:43 PM,66.2,62.6,88,29.70,5.0,Variable,3.5,-,0.09,Rain,Light Rain,0,2013-06-13 01:43:00
8:52 PM,66.0,63.0,90,29.66,5.0,ENE,9.2,-,0.09,Rain,Light Rain,60,2013-06-13 01:52:00
9:00 PM,66.2,62.6,88,29.66,6.0,ENE,10.4,-,0.00,,Overcast,60,2013-06-13 02:00:00
9:44 PM,64.4,60.8,88,29.69,10.0,NNE,10.4,-,0.00,Thunderstorm,Overcast,30,2013-06-13 02:44:00
9:52 PM,64.0,61.0,90,29.68,10.0,NNE,10.4,-,0.00,Rain-Thunderstorm,Light Rain,30,2013-06-13 02:52:00
10:06 PM,62.6,60.8,94,29.69,10.0,NE,8.1,-,0.00,,Overcast,40,2013-06-13 03:06:00
10:15 PM,62.6,59.0,88,29.69,10.0,NE,10.4,17.3,0.00,Thunderstorm,Overcast,50,2013-06-13 03:15:00
10:38 PM,62.6,60.8,94,29.80,8.0,NNW,17.3,27.6,0.01,Rain-Thunderstorm,Light Rain,330,2013-06-13 03:38:00
10:46 PM,62.6,60.8,94,29.67,2.5,ENE,15.0,27.6,0.16,Rain-Thunderstorm,Heavy Thunderstorms and Rain,70,2013-06-13 03:46:00
10:50 PM,62.6,60.8,94,29.68,1.8,ENE,15.0,25.3,0.18,Rain-Thunderstorm,Heavy Thunderstorms and Rain,70,2013-06-13 03:50:00
10:52 PM,63.0,61.0,93,29.68,1.8,ENE,16.1,25.3,0.18,Rain-Thunderstorm,Thunderstorms and Rain,60,2013-06-13 03:52:00
10:55 PM,62.6,60.8,94,29.69,3.0,NE,15.0,25.3,0.00,Rain-Thunderstorm,Light Thunderstorms and Rain,50,2013-06-13 03:55:00
11:08 PM,64.4,60.8,88,29.69,10.0,NE,8.1,-,0.00,Thunderstorm,Scattered Clouds,50,2013-06-13 04:08:00
11:18 PM,62.6,60.8,94,29.68,10.0,NNE,8.1,-,0.00,,Partly Cloudy,30,2013-06-13 04:18:00
11:52 PM,64.0,61.0,90,29.67,10.0,Calm,Calm,-,0.00,,Clear,0,2013-06-13 04:52:00